Time,TemperatureF,DewpointF,PressureIn,WindDirection,WindDirectionDegrees,WindSpeedMPH,WindSpeedGustMPH,Humidity,HourlyPrecipIn,Conditions,Clouds,dailyrainin,SoftwareType,DateUTC
2013-09-04 00:01:00,64.3,58.7,29.97,NNE,23,0.4,0.4,82,0.00,,,0.00,WUHU216HW,2013-09-04 07:01:00,
2013-09-04 00:06:00,63.7,57.8,29.97,NNE,23,0.4,0.4,81,0.00,,,0.00,WUHU216HW,2013-09-04 07:06:00,
2013-09-04 00:11:00,63.7,57.8,29.97,NNE,23,0.2,0.4,81,0.00,,,0.00,WUHU216HW,2013-09-04 07:11:00,
2013-09-04 00:16:00,63.5,58.0,29.97,NNE,23,1.1,1.1,82,0.00,,,0.00,WUHU216HW,2013-09-04 07:16:00,
2013-09-04 00:21:00,63.5,58.0,29.97,NNE,23,0.7,1.1,82,0.00,,,0.00,WUHU216HW,2013-09-04 07:21:00,
2013-09-04 00:26:00,63.5,58.2,29.97,NNE,23,0.9,1.1,83,0.00,,,0.00,WUHU216HW,2013-09-04 07:26:00,
2013-09-04 00:31:00,63.4,58.1,29.97,NNE,23,0.7,0.9,83,0.00,,,0.00,WUHU216HW,2013-09-04 07:31:00,
2013-09-04 00:36:00,63.2,57.9,29.97,NNE,23,0.0,0.7,83,0.00,,,0.00,WUHU216HW,2013-09-04 07:36:00,
2013-09-04 00:41:00,63.2,57.9,29.98,NNW,338,0.0,0.4,83,0.00,,,0.00,WUHU216HW,2013-09-04 07:41:00,
2013-09-04 00:46:00,63.0,58.1,29.98,North,0,1.3,1.3,84,0.00,,,0.00,WUHU216HW,2013-09-04 07:46:00,
2013-09-04 00:51:00,63.0,58.1,29.98,NNE,23,1.6,1.6,84,0.00,,,0.00,WUHU216HW,2013-09-04 07:51:00,
2013-09-04 00:56:00,63.0,58.1,29.98,NNE,23,1.1,1.6,84,0.00,,,0.00,WUHU216HW,2013-09-04 07:56:00,
2013-09-04 01:01:00,63.0,57.7,29.98,NNE,23,0.0,1.6,83,0.00,,,0.00,WUHU216HW,2013-09-04 08:01:00,
2013-09-04 01:06:00,63.0,57.7,29.98,North,0,0.0,1.1,83,0.00,,,0.00,WUHU216HW,2013-09-04 08:06:00,
2013-09-04 01:11:00,63.2,57.9,29.98,North,0,0.0,0.2,83,0.00,,,0.00,WUHU216HW,2013-09-04 08:11:00,
2013-09-04 01:16:00,63.2,57.9,29.98,North,0,0.0,0.0,83,0.00,,,0.00,WUHU216HW,2013-09-04 08:16:00,
2013-09-04 01:21:00,63.2,57.9,29.98,North,0,0.0,0.0,83,0.00,,,0.00,WUHU216HW,2013-09-04 08:21:00,
2013-09-04 01:26:00,63.2,57.9,29.98,North,0,0.0,0.0,83,0.00,,,0.00,WUHU216HW,2013-09-04 08:26:00,
2013-09-04 01:31:00,63.4,58.1,29.97,North,0,0.2,0.2,83,0.00,,,0.00,WUHU216HW,2013-09-04 08:31:00,
2013-09-04 01:36:00,63.2,57.9,29.97,NNW,338,0.0,0.4,83,0.00,,,0.00,WUHU216HW,2013-09-04 08:36:00,
2013-09-04 01:41:00,63.2,57.9,29.97,NNW,338,0.0,0.4,83,0.00,,,0.00,WUHU216HW,2013-09-04 08:41:00,
2013-09-04 01:46:00,63.0,57.7,29.97,NNW,338,0.4,0.4,83,0.00,,,0.00,WUHU216HW,2013-09-04 08:46:00,
2013-09-04 01:51:00,63.0,57.7,29.97,NNW,338,0.0,0.4,83,0.00,,,0.00,WUHU216HW,2013-09-04 08:51:00,
2013-09-04 01:56:00,63.0,58.1,29.97,NW,315,0.4,0.4,84,0.00,,,0.00,WUHU216HW,2013-09-04 08:56:00,
2013-09-04 02:01:00,63.0,58.1,29.97,NW,315,0.7,1.6,84,0.00,,,0.00,WUHU216HW,2013-09-04 09:01:00,
2013-09-04 02:06:00,62.8,57.9,29.96,WNW,293,0.0,1.6,84,0.00,,,0.00,WUHU216HW,2013-09-04 09:06:00,
2013-09-04 02:11:00,62.6,58.1,29.96,North,0,1.8,1.8,85,0.00,,,0.00,WUHU216HW,2013-09-04 09:11:00,
2013-09-04 02:16:00,62.3,58.1,29.97,North,0,0.4,1.8,86,0.00,,,0.00,WUHU216HW,2013-09-04 09:16:00,
2013-09-04 02:21:00,62.3,58.1,29.97,NNE,23,2.0,2.0,86,0.00,,,0.00,WUHU216HW,2013-09-04 09:21:00,
2013-09-04 02:26:00,62.1,57.9,29.97,North,0,0.7,2.0,86,0.00,,,0.00,WUHU216HW,2013-09-04 09:26:00,
2013-09-04 02:31:00,62.1,57.9,29.96,NNE,23,0.7,2.0,86,0.00,,,0.00,WUHU216HW,2013-09-04 09:31:00,
2013-09-04 02:36:00,62.1,57.9,29.97,NNE,23,0.4,1.1,86,0.00,,,0.00,WUHU216HW,2013-09-04 09:36:00,
2013-09-04 02:41:00,61.9,57.7,29.97,North,0,0.7,1.1,86,0.00,,,0.00,WUHU216HW,2013-09-04 09:41:00,
2013-09-04 02:46:00,61.9,57.7,29.97,WNW,293,0.9,0.9,86,0.00,,,0.00,WUHU216HW,2013-09-04 09:46:00,
2013-09-04 02:51:00,61.9,57.7,29.97,NE,45,0.4,0.9,86,0.00,,,0.00,WUHU216HW,2013-09-04 09:51:00,
2013-09-04 02:56:00,61.9,57.7,29.97,NE,45,0.4,1.1,86,0.00,,,0.00,WUHU216HW,2013-09-04 09:56:00,
2013-09-04 03:01:00,61.9,57.7,29.97,NE,45,0.2,1.1,86,0.00,,,0.00,WUHU216HW,2013-09-04 10:01:00,
2013-09-04 03:06:00,61.9,57.3,29.97,NE,45,0.4,0.4,85,0.00,,,0.00,WUHU216HW,2013-09-04 10:06:00,
2013-09-04 03:11:00,61.9,57.3,29.97,NE,45,0.4,0.4,85,0.00,,,0.00,WUHU216HW,2013-09-04 10:11:00,
2013-09-04 03:16:00,62.1,57.5,29.97,NE,45,0.0,0.4,85,0.00,,,0.00,WUHU216HW,2013-09-04 10:16:00,
2013-09-04 03:21:00,62.3,57.3,29.97,NE,45,0.0,0.0,84,0.00,,,0.00,WUHU216HW,2013-09-04 10:21:00,
2013-09-04 03:26:00,62.1,57.3,29.97,NE,45,0.0,0.0,84,0.00,,,0.00,WUHU216HW,2013-09-04 10:26:00,
2013-09-04 03:31:00,62.1,57.3,29.96,NE,45,0.0,0.0,84,0.00,,,0.00,WUHU216HW,2013-09-04 10:31:00,
2013-09-04 03:36:00,61.9,57.1,29.96,NE,45,0.4,0.4,84,0.00,,,0.00,WUHU216HW,2013-09-04 10:36:00,
2013-09-04 03:41:00,61.9,57.1,29.96,NE,45,0.2,0.4,84,0.00,,,0.00,WUHU216HW,2013-09-04 10:41:00,
2013-09-04 03:46:00,61.6,57.1,29.96,North,0,0.7,1.3,85,0.00,,,0.00,WUHU216HW,2013-09-04 10:46:00,
2013-09-04 03:51:00,61.6,57.1,29.97,North,0,0.0,1.3,85,0.00,,,0.00,WUHU216HW,2013-09-04 10:51:00,
2013-09-04 03:56:00,61.4,56.9,29.97,North,0,0.0,0.7,85,0.00,,,0.00,WUHU216HW,2013-09-04 10:56:00,
2013-09-04 04:01:00,61.2,56.7,29.96,North,0,0.4,0.4,85,0.00,,,0.00,WUHU216HW,2013-09-04 11:01:00,
2013-09-04 04:06:00,61.2,56.7,29.96,North,0,0.0,0.4,85,0.00,,,0.00,WUHU216HW,2013-09-04 11:06:00,
2013-09-04 04:11:00,61.2,56.7,29.96,North,0,0.0,0.4,85,0.00,,,0.00,WUHU216HW,2013-09-04 11:11:00,
2013-09-04 04:16:00,61.2,56.7,29.96,North,0,0.0,0.0,85,0.00,,,0.00,WUHU216HW,2013-09-04 11:16:00,
2013-09-04 04:21:00,61.2,56.7,29.97,North,0,0.0,0.0,85,0.00,,,0.00,WUHU216HW,2013-09-04 11:21:00,
2013-09-04 04:26:00,61.2,56.7,29.96,North,0,0.0,0.0,85,0.00,,,0.00,WUHU216HW,2013-09-04 11:26:00,
2013-09-04 04:31:00,61.2,56.7,29.96,North,0,0.0,0.0,85,0.00,,,0.00,WUHU216HW,2013-09-04 11:31:00,
2013-09-04 04:36:00,61.2,56.7,29.95,North,0,1.8,1.8,85,0.00,,,0.00,WUHU216HW,2013-09-04 11:36:00,
2013-09-04 04:41:00,61.2,57.3,29.95,North,0,1.1,1.8,87,0.00,,,0.00,WUHU216HW,2013-09-04 11:41:00,
2013-09-04 04:46:00,60.8,57.0,29.96,NW,315,1.8,1.8,87,0.00,,,0.00,WUHU216HW,2013-09-04 11:46:00,
2013-09-04 04:51:00,60.8,57.0,29.97,NW,315,0.0,1.8,87,0.00,,,0.00,WUHU216HW,2013-09-04 11:51:00,
2013-09-04 04:56:00,60.8,57.0,29.98,NW,315,0.0,1.8,87,0.00,,,0.00,WUHU216HW,2013-09-04 11:56:00,
2013-09-04 05:01:00,60.8,57.0,29.98,NW,315,0.0,0.0,87,0.00,,,0.00,WUHU216HW,2013-09-04 12:01:00,
2013-09-04 05:06:00,61.0,57.2,29.98,SW,225,0.2,0.2,87,0.00,,,0.00,WUHU216HW,2013-09-04 12:06:00,
2013-09-04 05:11:00,61.0,57.2,29.98,SW,225,0.4,0.4,87,0.00,,,0.00,WUHU216HW,2013-09-04 12:11:00,
2013-09-04 05:16:00,61.2,57.7,29.95,NNW,338,1.6,1.6,88,0.00,,,0.00,WUHU216HW,2013-09-04 12:16:00,
2013-09-04 05:21:00,61.0,57.8,29.96,North,0,2.7,2.7,89,0.00,,,0.00,WUHU216HW,2013-09-04 12:21:00,
2013-09-04 05:26:00,60.8,57.3,29.95,North,0,3.4,3.4,88,0.00,,,0.00,WUHU216HW,2013-09-04 12:26:00,
2013-09-04 05:31:00,60.8,57.6,29.94,North,0,4.7,4.7,89,0.00,,,0.00,WUHU216HW,2013-09-04 12:31:00,
2013-09-04 05:36:00,60.8,57.6,29.95,West,270,0.7,4.7,89,0.01,,,0.00,WUHU216HW,2013-09-04 12:36:00,
2013-09-04 05:41:00,60.8,57.6,29.96,NNW,338,0.0,1.1,89,0.01,,,0.00,WUHU216HW,2013-09-04 12:41:00,
2013-09-04 05:46:00,60.8,57.3,29.96,North,0,0.4,1.1,88,0.01,,,0.00,WUHU216HW,2013-09-04 12:46:00,
2013-09-04 05:51:00,60.8,57.3,29.97,NW,315,0.7,0.7,88,0.01,,,0.00,WUHU216HW,2013-09-04 12:51:00,
2013-09-04 05:56:00,60.8,57.3,29.96,NNW,338,0.0,0.7,88,0.01,,,0.00,WUHU216HW,2013-09-04 12:56:00,
2013-09-04 06:01:00,61.0,57.5,29.96,NNW,338,0.0,0.7,88,0.01,,,0.00,WUHU216HW,2013-09-04 13:01:00,
2013-09-04 06:06:00,61.0,57.5,29.96,NW,315,0.0,1.1,88,0.01,,,0.00,WUHU216HW,2013-09-04 13:06:00,
2013-09-04 06:11:00,61.0,57.5,29.95,NE,45,0.2,1.1,88,0.01,,,0.00,WUHU216HW,2013-09-04 13:11:00,
2013-09-04 06:16:00,60.8,57.3,29.96,NNE,23,3.4,3.4,88,0.01,,,0.00,WUHU216HW,2013-09-04 13:16:00,
2013-09-04 06:21:00,60.8,57.3,29.96,NNW,338,0.4,3.4,88,0.01,,,0.00,WUHU216HW,2013-09-04 13:21:00,
2013-09-04 06:26:00,60.8,57.3,29.96,NNE,23,0.9,3.4,88,0.01,,,0.00,WUHU216HW,2013-09-04 13:26:00,
2013-09-04 06:31:00,60.8,57.3,29.95,North,0,1.1,1.1,88,0.00,,,0.00,WUHU216HW,2013-09-04 13:31:00,
2013-09-04 06:36:00,60.8,57.3,29.95,North,0,1.1,1.1,88,0.00,,,0.00,WUHU216HW,2013-09-04 13:36:00,
2013-09-04 06:42:00,60.8,57.3,29.96,NNE,23,0.4,1.1,88,0.00,,,0.00,WUHU216HW,2013-09-04 13:42:00,
2013-09-04 06:47:00,60.8,57.3,29.96,North,0,0.0,1.1,88,0.00,,,0.00,WUHU216HW,2013-09-04 13:47:00,
2013-09-04 06:51:00,61.0,57.2,29.96,West,270,0.0,1.3,87,0.00,,,0.00,WUHU216HW,2013-09-04 13:51:00,
2013-09-04 06:56:00,61.0,57.2,29.96,West,270,0.0,1.3,87,0.00,,,0.00,WUHU216HW,2013-09-04 13:56:00,
2013-09-04 07:02:00,61.0,57.2,29.96,West,270,1.1,1.1,87,0.00,,,0.00,WUHU216HW,2013-09-04 14:02:00,
2013-09-04 07:07:00,61.0,57.2,29.96,North,0,0.9,1.1,87,0.00,,,0.00,WUHU216HW,2013-09-04 14:07:00,
2013-09-04 07:12:00,61.0,57.2,29.96,North,0,0.9,1.1,87,0.00,,,0.00,WUHU216HW,2013-09-04 14:12:00,
2013-09-04 07:17:00,61.0,57.2,29.96,WNW,293,1.1,1.1,87,0.00,,,0.00,WUHU216HW,2013-09-04 14:17:00,
2013-09-04 07:22:00,61.0,57.2,29.96,West,270,1.3,1.8,87,0.00,,,0.00,WUHU216HW,2013-09-04 14:22:00,
2013-09-04 07:27:00,61.0,57.2,29.96,North,0,0.0,1.8,87,0.00,,,0.00,WUHU216HW,2013-09-04 14:27:00,
2013-09-04 07:32:00,61.0,57.2,29.97,North,0,1.1,1.1,87,0.00,,,0.00,WUHU216HW,2013-09-04 14:32:00,
2013-09-04 07:37:00,61.0,57.2,29.97,North,0,0.0,1.1,87,0.00,,,0.00,WUHU216HW,2013-09-04 14:37:00,
2013-09-04 07:42:00,61.0,57.2,29.97,NE,45,0.4,1.1,87,0.00,,,0.00,WUHU216HW,2013-09-04 14:42:00,
2013-09-04 07:47:00,61.0,57.2,29.97,North,0,0.2,0.7,87,0.00,,,0.00,WUHU216HW,2013-09-04 14:47:00,
2013-09-04 07:52:00,61.0,57.2,29.97,NNE,23,1.8,1.8,87,0.00,,,0.00,WUHU216HW,2013-09-04 14:52:00,
2013-09-04 07:57:00,61.0,57.2,29.97,NNE,23,4.0,4.0,87,0.00,,,0.00,WUHU216HW,2013-09-04 14:57:00,
2013-09-04 08:02:00,61.0,57.2,29.97,NE,45,1.8,4.0,87,0.00,,,0.00,WUHU216HW,2013-09-04 15:02:00,
2013-09-04 08:07:00,61.2,57.3,29.97,North,0,1.3,1.8,87,0.00,,,0.00,WUHU216HW,2013-09-04 15:07:00,
2013-09-04 08:12:00,61.4,57.5,29.98,North,0,1.1,1.8,87,0.00,,,0.00,WUHU216HW,2013-09-04 15:12:00,
2013-09-04 08:17:00,61.4,57.9,29.98,NNW,338,1.3,1.3,88,0.00,,,0.00,WUHU216HW,2013-09-04 15:17:00,
2013-09-04 08:22:00,61.6,58.3,29.98,North,0,1.6,1.6,89,0.00,,,0.00,WUHU216HW,2013-09-04 15:22:00,
2013-09-04 08:27:00,61.6,58.3,29.98,NNW,338,2.5,2.5,89,0.00,,,0.00,WUHU216HW,2013-09-04 15:27:00,
2013-09-04 08:32:00,61.6,58.1,29.98,North,0,1.8,2.5,88,0.00,,,0.00,WUHU216HW,2013-09-04 15:32:00,
2013-09-04 08:37:00,61.7,58.2,29.98,NNE,23,0.9,2.0,88,0.00,,,0.00,WUHU216HW,2013-09-04 15:37:00,
2013-09-04 08:42:00,61.7,58.2,29.99,North,0,1.8,1.8,88,0.00,,,0.00,WUHU216HW,2013-09-04 15:42:00,
2013-09-04 08:47:00,61.9,58.4,29.99,NNE,23,1.3,1.8,88,0.00,,,0.00,WUHU216HW,2013-09-04 15:47:00,
2013-09-04 08:52:00,62.1,58.6,29.99,NNE,23,3.4,3.4,88,0.00,,,0.00,WUHU216HW,2013-09-04 15:52:00,
2013-09-04 08:57:00,62.3,59.0,29.98,North,0,1.8,3.4,89,0.00,,,0.00,WUHU216HW,2013-09-04 15:57:00,
2013-09-04 09:02:00,62.3,58.7,29.98,NE,45,0.9,3.4,88,0.00,,,0.00,WUHU216HW,2013-09-04 16:02:00,
2013-09-04 09:07:00,62.5,58.9,29.98,NNE,23,2.0,2.0,88,0.00,,,0.00,WUHU216HW,2013-09-04 16:07:00,
2013-09-04 09:12:00,62.8,59.6,29.98,ENE,68,1.1,2.7,89,0.00,,,0.00,WUHU216HW,2013-09-04 16:12:00,
2013-09-04 09:17:00,63.0,59.8,29.98,ENE,68,2.0,2.7,89,0.00,,,0.00,WUHU216HW,2013-09-04 16:17:00,
2013-09-04 09:22:00,63.2,59.6,29.98,NE,45,0.7,2.0,88,0.00,,,0.00,WUHU216HW,2013-09-04 16:22:00,
2013-09-04 09:27:00,63.4,59.8,29.98,NE,45,1.3,2.0,88,0.00,,,0.00,WUHU216HW,2013-09-04 16:27:00,
2013-09-04 09:32:00,63.7,60.1,29.98,NNE,23,4.0,4.0,88,0.00,,,0.00,WUHU216HW,2013-09-04 16:32:00,
2013-09-04 09:37:00,63.7,59.9,29.98,NNE,23,5.4,5.4,87,0.00,,,0.00,WUHU216HW,2013-09-04 16:37:00,
2013-09-04 09:42:00,63.7,59.9,29.98,North,0,4.0,5.4,87,0.00,,,0.00,WUHU216HW,2013-09-04 16:42:00,
2013-09-04 09:47:00,63.7,59.9,29.98,NE,45,1.6,5.4,87,0.00,,,0.00,WUHU216HW,2013-09-04 16:47:00,
2013-09-04 09:52:00,63.9,60.0,29.98,NNE,23,5.4,5.4,87,0.00,,,0.00,WUHU216HW,2013-09-04 16:52:00,
2013-09-04 09:57:00,63.9,60.0,29.98,NE,45,0.2,5.4,87,0.00,,,0.00,WUHU216HW,2013-09-04 16:57:00,
2013-09-04 10:02:00,64.1,60.2,29.99,NNE,23,1.6,5.4,87,0.00,,,0.00,WUHU216HW,2013-09-04 17:02:00,
2013-09-04 10:07:00,64.1,60.2,29.98,NNE,23,1.1,1.8,87,0.00,,,0.00,WUHU216HW,2013-09-04 17:07:00,
2013-09-04 10:12:00,64.3,60.4,29.99,ENE,68,1.1,1.8,87,0.00,,,0.00,WUHU216HW,2013-09-04 17:12:00,
2013-09-04 10:17:00,64.3,60.4,29.99,North,0,0.9,1.1,87,0.00,,,0.00,WUHU216HW,2013-09-04 17:17:00,
2013-09-04 10:22:00,64.4,60.6,29.99,North,0,0.4,1.1,87,0.00,,,0.00,WUHU216HW,2013-09-04 17:22:00,
2013-09-04 10:27:00,64.4,60.6,29.99,NE,45,1.1,1.1,87,0.00,,,0.00,WUHU216HW,2013-09-04 17:27:00,
2013-09-04 10:32:00,64.4,60.6,29.99,North,0,2.2,2.5,87,0.00,,,0.00,WUHU216HW,2013-09-04 17:32:00,
2013-09-04 10:37:00,64.3,60.4,29.99,North,0,1.1,2.5,87,0.00,,,0.00,WUHU216HW,2013-09-04 17:37:00,
2013-09-04 10:42:00,64.3,60.4,29.99,North,0,1.1,2.2,87,0.00,,,0.00,WUHU216HW,2013-09-04 17:42:00,
2013-09-04 10:47:00,64.3,60.4,29.99,NNE,23,2.7,3.4,87,0.00,,,0.00,WUHU216HW,2013-09-04 17:47:00,
2013-09-04 10:52:00,64.3,60.4,29.99,North,0,3.6,3.6,87,0.00,,,0.00,WUHU216HW,2013-09-04 17:52:00,
2013-09-04 10:57:00,64.3,60.4,29.99,WNW,293,0.9,3.6,87,0.00,,,0.00,WUHU216HW,2013-09-04 17:57:00,
2013-09-04 11:02:00,64.3,60.0,29.99,NNE,23,1.3,3.6,86,0.00,,,0.00,WUHU216HW,2013-09-04 18:02:00,
2013-09-04 11:07:00,64.3,60.0,29.99,NE,45,2.5,2.7,86,0.00,,,0.00,WUHU216HW,2013-09-04 18:07:00,
2013-09-04 11:12:00,64.4,60.2,29.99,NNE,23,1.1,2.7,86,0.00,,,0.00,WUHU216HW,2013-09-04 18:12:00,
2013-09-04 11:17:00,64.4,60.2,29.98,NNE,23,1.3,2.7,86,0.00,,,0.00,WUHU216HW,2013-09-04 18:17:00,
2013-09-04 11:22:00,64.3,60.0,29.99,NNE,23,1.8,2.7,86,0.00,,,0.00,WUHU216HW,2013-09-04 18:22:00,
2013-09-04 11:27:00,64.4,60.2,29.98,SSE,158,1.8,2.7,86,0.00,,,0.00,WUHU216HW,2013-09-04 18:27:00,
2013-09-04 11:32:00,64.4,60.2,29.99,SE,135,1.3,2.5,86,0.00,,,0.00,WUHU216HW,2013-09-04 18:32:00,
2013-09-04 11:37:00,64.4,60.2,29.99,NNW,338,2.9,2.9,86,0.00,,,0.00,WUHU216HW,2013-09-04 18:37:00,
2013-09-04 11:42:00,64.6,60.4,29.99,North,0,4.0,4.0,86,0.00,,,0.00,WUHU216HW,2013-09-04 18:42:00,
2013-09-04 11:47:00,64.6,60.4,29.99,NW,315,1.1,4.0,86,0.00,,,0.00,WUHU216HW,2013-09-04 18:47:00,
2013-09-04 11:52:00,64.6,60.4,29.98,NNW,338,1.8,4.0,86,0.00,,,0.00,WUHU216HW,2013-09-04 18:52:00,
2013-09-04 11:57:00,64.8,60.2,29.99,North,0,2.7,2.7,85,0.00,,,0.00,WUHU216HW,2013-09-04 18:57:00,
2013-09-04 12:02:00,64.8,60.2,29.98,NW,315,3.6,3.6,85,0.00,,,0.00,WUHU216HW,2013-09-04 19:02:00,
2013-09-04 12:07:00,65.0,60.4,29.98,NW,315,3.4,3.6,85,0.00,,,0.00,WUHU216HW,2013-09-04 19:07:00,
2013-09-04 12:12:00,65.0,60.4,29.98,NW,315,1.1,3.6,85,0.00,,,0.00,WUHU216HW,2013-09-04 19:12:00,
2013-09-04 12:17:00,64.8,60.2,29.99,NNW,338,1.8,3.4,85,0.00,,,0.00,WUHU216HW,2013-09-04 19:17:00,
2013-09-04 12:22:00,64.8,60.2,29.98,NNW,338,1.3,1.8,85,0.00,,,0.00,WUHU216HW,2013-09-04 19:22:00,
2013-09-04 12:27:00,64.6,60.0,29.98,North,0,1.8,1.8,85,0.00,,,0.00,WUHU216HW,2013-09-04 19:27:00,
2013-09-04 12:32:00,64.6,60.0,29.98,NNW,338,1.1,2.2,85,0.00,,,0.00,WUHU216HW,2013-09-04 19:32:00,
2013-09-04 12:37:00,64.6,60.0,29.99,NNW,338,0.7,2.2,85,0.00,,,0.00,WUHU216HW,2013-09-04 19:37:00,
2013-09-04 12:42:00,64.6,60.0,29.99,NNE,23,0.9,1.1,85,0.00,,,0.00,WUHU216HW,2013-09-04 19:42:00,
2013-09-04 12:47:00,64.6,60.0,29.98,ENE,68,3.6,3.6,85,0.00,,,0.00,WUHU216HW,2013-09-04 19:47:00,
2013-09-04 12:52:00,64.8,60.6,29.98,NNE,23,3.4,6.3,86,0.00,,,0.00,WUHU216HW,2013-09-04 19:52:00,
2013-09-04 12:57:00,65.2,60.6,29.98,South,180,1.3,6.3,85,0.00,,,0.00,WUHU216HW,2013-09-04 19:57:00,
2013-09-04 13:02:00,65.2,60.6,29.99,NW,315,1.3,4.7,85,0.00,,,0.00,WUHU216HW,2013-09-04 20:02:00,
2013-09-04 13:07:00,65.2,60.6,29.99,NW,315,1.8,3.4,85,0.00,,,0.00,WUHU216HW,2013-09-04 20:07:00,
2013-09-04 13:12:00,65.2,60.6,29.98,West,270,3.4,3.4,85,0.00,,,0.00,WUHU216HW,2013-09-04 20:12:00,
2013-09-04 13:17:00,65.2,60.6,29.99,NW,315,1.6,3.4,85,0.00,,,0.00,WUHU216HW,2013-09-04 20:17:00,
2013-09-04 13:22:00,65.3,60.8,29.98,North,0,2.5,3.4,85,0.00,,,0.00,WUHU216HW,2013-09-04 20:22:00,
2013-09-04 13:27:00,65.5,60.8,29.99,North,0,2.2,2.5,85,0.00,,,0.00,WUHU216HW,2013-09-04 20:27:00,
2013-09-04 13:32:00,65.9,61.2,29.99,NNE,23,2.7,2.7,85,0.00,,,0.00,WUHU216HW,2013-09-04 20:32:00,
2013-09-04 13:37:00,66.2,61.2,29.99,NNE,23,4.0,4.0,84,0.00,,,0.00,WUHU216HW,2013-09-04 20:37:00,
2013-09-04 13:42:00,66.4,61.1,29.99,North,0,2.7,4.0,83,0.00,,,0.00,WUHU216HW,2013-09-04 20:42:00,
2013-09-04 13:47:00,66.8,61.5,29.98,WNW,293,1.8,4.0,83,0.00,,,0.00,WUHU216HW,2013-09-04 20:47:00,
2013-09-04 13:52:00,67.0,61.3,29.99,North,0,1.8,2.7,82,0.00,,,0.00,WUHU216HW,2013-09-04 20:52:00,
2013-09-04 13:57:00,67.3,61.7,29.99,WNW,293,1.6,1.8,82,0.00,,,0.00,WUHU216HW,2013-09-04 20:57:00,
2013-09-04 14:02:00,67.3,61.4,29.99,NNW,338,0.9,1.8,81,0.00,,,0.00,WUHU216HW,2013-09-04 21:02:00,
2013-09-04 14:07:00,67.3,61.4,29.99,NNW,338,1.8,1.8,81,0.00,,,0.00,WUHU216HW,2013-09-04 21:07:00,
2013-09-04 14:12:00,67.3,61.0,29.99,SSE,158,1.3,1.8,80,0.00,,,0.00,WUHU216HW,2013-09-04 21:12:00,
2013-09-04 14:17:00,67.3,61.0,29.99,NW,315,1.6,1.8,80,0.00,,,0.00,WUHU216HW,2013-09-04 21:17:00,
2013-09-04 14:22:00,67.5,61.2,29.99,WNW,293,5.4,5.4,80,0.00,,,0.00,WUHU216HW,2013-09-04 21:22:00,
2013-09-04 14:27:00,67.5,61.2,29.99,North,0,0.9,5.4,80,0.00,,,0.00,WUHU216HW,2013-09-04 21:27:00,
2013-09-04 14:32:00,67.5,60.9,29.99,North,0,5.8,5.8,79,0.00,,,0.00,WUHU216HW,2013-09-04 21:32:00,
2013-09-04 14:36:00,67.5,61.2,29.99,NNE,23,1.8,5.8,80,0.00,,,0.00,WUHU216HW,2013-09-04 21:36:00,
2013-09-04 14:42:00,67.7,61.0,29.99,North,0,2.2,2.5,79,0.00,,,0.00,WUHU216HW,2013-09-04 21:42:00,
2013-09-04 14:47:00,67.7,61.0,30.00,WNW,293,1.8,2.2,79,0.00,,,0.00,WUHU216HW,2013-09-04 21:47:00,
2013-09-04 14:52:00,67.7,60.7,29.99,North,0,1.6,3.4,78,0.00,,,0.00,WUHU216HW,2013-09-04 21:52:00,
2013-09-04 14:57:00,67.7,61.0,29.99,NE,45,6.5,6.5,79,0.00,,,0.00,WUHU216HW,2013-09-04 21:57:00,
2013-09-04 15:02:00,68.0,61.4,29.99,NNE,23,5.4,6.5,79,0.00,,,0.00,WUHU216HW,2013-09-04 22:02:00,
2013-09-04 15:07:00,68.4,61.7,29.99,NW,315,1.1,6.5,79,0.00,,,0.00,WUHU216HW,2013-09-04 22:07:00,
2013-09-04 15:12:00,68.8,61.3,30.00,WSW,248,1.1,5.4,77,0.00,,,0.00,WUHU216HW,2013-09-04 22:12:00,
2013-09-04 15:17:00,69.1,61.9,30.00,West,270,1.6,1.6,78,0.00,,,0.00,WUHU216HW,2013-09-04 22:17:00,
2013-09-04 15:22:00,69.3,62.1,29.99,West,270,1.1,1.6,78,0.00,,,0.00,WUHU216HW,2013-09-04 22:22:00,
2013-09-04 15:27:00,69.3,61.0,29.99,NNE,23,4.7,4.7,75,0.00,,,0.00,WUHU216HW,2013-09-04 22:27:00,
2013-09-04 15:32:00,69.1,60.5,29.99,WNW,293,1.1,4.7,74,0.00,,,0.00,WUHU216HW,2013-09-04 22:32:00,
2013-09-04 15:37:00,69.1,60.5,29.99,North,0,2.7,3.4,74,0.00,,,0.00,WUHU216HW,2013-09-04 22:37:00,
2013-09-04 15:42:00,69.1,60.9,29.99,NNE,23,3.4,3.4,75,0.00,,,0.00,WUHU216HW,2013-09-04 22:42:00,
2013-09-04 15:47:00,69.1,61.2,29.99,West,270,1.6,3.4,76,0.00,,,0.00,WUHU216HW,2013-09-04 22:47:00,
2013-09-04 15:52:00,69.1,60.9,29.99,East,90,1.1,1.6,75,0.00,,,0.00,WUHU216HW,2013-09-04 22:52:00,
2013-09-04 15:57:00,69.5,61.1,29.99,SW,225,1.6,4.5,75,0.00,,,0.00,WUHU216HW,2013-09-04 22:57:00,
2013-09-04 16:02:00,69.5,61.1,29.99,NNE,23,1.3,4.5,75,0.00,,,0.00,WUHU216HW,2013-09-04 23:02:00,
2013-09-04 16:07:00,69.5,60.8,29.99,NNE,23,2.5,3.1,74,0.00,,,0.00,WUHU216HW,2013-09-04 23:07:00,
2013-09-04 16:12:00,69.5,60.8,29.99,NNE,23,3.1,3.1,74,0.00,,,0.00,WUHU216HW,2013-09-04 23:12:00,
2013-09-04 16:17:00,69.5,61.1,29.98,NNE,23,5.6,5.6,75,0.00,,,0.00,WUHU216HW,2013-09-04 23:17:00,
2013-09-04 16:22:00,69.5,61.1,29.98,ESE,113,4.3,5.6,75,0.00,,,0.00,WUHU216HW,2013-09-04 23:22:00,
2013-09-04 16:27:00,69.5,61.6,29.98,North,0,0.7,5.6,76,0.00,,,0.00,WUHU216HW,2013-09-04 23:27:00,
2013-09-04 16:32:00,69.5,61.6,29.98,East,90,1.8,1.8,76,0.00,,,0.00,WUHU216HW,2013-09-04 23:32:00,
2013-09-04 16:37:00,69.7,61.7,29.98,East,90,0.4,1.8,76,0.00,,,0.00,WUHU216HW,2013-09-04 23:37:00,
2013-09-04 16:42:00,69.7,61.7,29.98,NE,45,1.3,4.0,76,0.00,,,0.00,WUHU216HW,2013-09-04 23:42:00,
2013-09-04 16:47:00,69.7,61.7,29.98,NNE,23,0.7,4.0,76,0.00,,,0.00,WUHU216HW,2013-09-04 23:47:00,
2013-09-04 16:52:00,69.5,61.6,29.98,North,0,2.9,2.9,76,0.00,,,0.00,WUHU216HW,2013-09-04 23:52:00,
2013-09-04 16:57:00,69.5,61.6,29.98,NNE,23,1.1,2.9,76,0.00,,,0.00,WUHU216HW,2013-09-04 23:57:00,
2013-09-04 17:02:00,69.5,61.6,29.98,ENE,68,1.6,2.9,76,0.00,,,0.00,WUHU216HW,2013-09-05 00:02:00,
2013-09-04 17:07:00,69.5,61.6,29.98,ENE,68,1.8,1.8,76,0.00,,,0.00,WUHU216HW,2013-09-05 00:07:00,
2013-09-04 17:12:00,69.3,61.7,29.98,SSW,203,0.7,1.8,77,0.00,,,0.00,WUHU216HW,2013-09-05 00:12:00,
2013-09-04 17:17:00,69.1,61.6,29.98,ESE,113,2.7,3.4,77,0.00,,,0.00,WUHU216HW,2013-09-05 00:17:00,
2013-09-04 17:22:00,69.1,61.6,29.98,SE,135,0.9,3.4,77,0.00,,,0.00,WUHU216HW,2013-09-05 00:22:00,
2013-09-04 17:27:00,69.1,61.6,29.98,ENE,68,0.9,1.1,77,0.00,,,0.00,WUHU216HW,2013-09-05 00:27:00,
2013-09-04 17:32:00,68.9,61.4,29.98,SSW,203,0.4,0.9,77,0.00,,,0.00,WUHU216HW,2013-09-05 00:32:00,
2013-09-04 17:37:00,68.9,61.4,29.98,South,180,0.4,0.9,77,0.00,,,0.00,WUHU216HW,2013-09-05 00:37:00,
2013-09-04 17:42:00,69.1,61.6,29.97,South,180,0.0,0.4,77,0.00,,,0.00,WUHU216HW,2013-09-05 00:42:00,
2013-09-04 17:47:00,69.1,61.6,29.98,South,180,0.4,0.4,77,0.00,,,0.00,WUHU216HW,2013-09-05 00:47:00,
2013-09-04 17:52:00,69.1,61.6,29.98,ESE,113,1.1,1.1,77,0.00,,,0.00,WUHU216HW,2013-09-05 00:52:00,
2013-09-04 17:57:00,69.1,61.6,29.98,NNE,23,1.1,1.1,77,0.00,,,0.00,WUHU216HW,2013-09-05 00:57:00,
2013-09-04 18:02:00,69.3,61.7,29.98,East,90,2.5,2.5,77,0.00,,,0.00,WUHU216HW,2013-09-05 01:02:00,
2013-09-04 18:07:00,69.3,61.7,29.98,East,90,0.4,2.5,77,0.00,,,0.00,WUHU216HW,2013-09-05 01:07:00,
2013-09-04 18:12:00,69.1,61.6,29.98,South,180,1.3,2.5,77,0.00,,,0.00,WUHU216HW,2013-09-05 01:12:00,
2013-09-04 18:17:00,69.1,61.6,29.98,SSE,158,0.0,1.6,77,0.00,,,0.00,WUHU216HW,2013-09-05 01:17:00,
2013-09-04 18:22:00,69.1,61.6,29.98,SSE,158,0.2,1.6,77,0.00,,,0.00,WUHU216HW,2013-09-05 01:22:00,
2013-09-04 18:27:00,68.9,61.4,29.98,SSE,158,0.2,0.2,77,0.00,,,0.00,WUHU216HW,2013-09-05 01:27:00,
2013-09-04 18:32:00,68.8,61.3,29.98,SSE,158,0.2,0.2,77,0.00,,,0.00,WUHU216HW,2013-09-05 01:32:00,
2013-09-04 18:37:00,68.8,61.7,29.97,South,180,0.0,0.2,78,0.00,,,0.00,WUHU216HW,2013-09-05 01:37:00,
2013-09-04 18:42:00,68.8,61.7,29.98,South,180,0.2,0.2,78,0.00,,,0.00,WUHU216HW,2013-09-05 01:42:00,
2013-09-04 18:47:00,68.8,61.7,29.99,South,180,0.0,0.2,78,0.00,,,0.00,WUHU216HW,2013-09-05 01:47:00,
2013-09-04 18:52:00,68.6,61.5,29.99,South,180,0.0,0.2,78,0.00,,,0.00,WUHU216HW,2013-09-05 01:52:00,
2013-09-04 18:57:00,68.4,61.7,29.98,South,180,0.0,0.0,79,0.00,,,0.00,WUHU216HW,2013-09-05 01:57:00,
2013-09-04 19:02:00,68.4,61.7,29.98,South,180,0.0,0.2,79,0.00,,,0.00,WUHU216HW,2013-09-05 02:02:00,
2013-09-04 19:07:00,68.4,61.7,29.98,South,180,0.0,0.2,79,0.00,,,0.00,WUHU216HW,2013-09-05 02:07:00,
2013-09-04 19:12:00,68.2,61.6,29.98,South,180,0.0,0.0,79,0.00,,,0.00,WUHU216HW,2013-09-05 02:12:00,
2013-09-04 19:17:00,68.2,61.6,29.99,South,180,0.0,0.0,79,0.00,,,0.00,WUHU216HW,2013-09-05 02:17:00,
2013-09-04 19:22:00,68.0,61.7,29.99,South,180,0.0,0.0,80,0.00,,,0.00,WUHU216HW,2013-09-05 02:22:00,
2013-09-04 19:27:00,68.0,61.7,29.99,South,180,0.0,0.0,80,0.00,,,0.00,WUHU216HW,2013-09-05 02:27:00,
2013-09-04 19:32:00,67.9,61.6,29.99,South,180,0.0,0.0,80,0.00,,,0.00,WUHU216HW,2013-09-05 02:32:00,
2013-09-04 19:37:00,67.7,61.4,29.98,South,180,0.0,0.0,80,0.00,,,0.00,WUHU216HW,2013-09-05 02:37:00,
2013-09-04 19:42:00,67.7,61.4,29.98,South,180,0.0,0.0,80,0.00,,,0.00,WUHU216HW,2013-09-05 02:42:00,
2013-09-04 19:47:00,67.7,61.4,29.98,SSE,158,0.4,0.4,80,0.00,,,0.00,WUHU216HW,2013-09-05 02:47:00,
2013-09-04 19:52:00,67.5,61.2,29.98,East,90,0.0,0.4,80,0.00,,,0.00,WUHU216HW,2013-09-05 02:52:00,
2013-09-04 19:57:00,67.3,61.0,29.99,East,90,0.0,0.0,80,0.00,,,0.00,WUHU216HW,2013-09-05 02:57:00,
2013-09-04 20:02:00,67.3,61.0,29.99,East,90,0.0,0.0,80,0.00,,,0.00,WUHU216HW,2013-09-05 03:02:00,
2013-09-04 20:07:00,67.3,61.0,29.99,East,90,0.0,0.0,80,0.00,,,0.00,WUHU216HW,2013-09-05 03:07:00,
2013-09-04 20:12:00,67.1,60.8,29.99,East,90,0.0,0.0,80,0.00,,,0.00,WUHU216HW,2013-09-05 03:12:00,
2013-09-04 20:17:00,67.0,60.7,29.99,East,90,0.0,0.0,80,0.00,,,0.00,WUHU216HW,2013-09-05 03:17:00,
2013-09-04 20:22:00,67.0,60.7,29.99,East,90,0.0,0.0,80,0.00,,,0.00,WUHU216HW,2013-09-05 03:22:00,
2013-09-04 20:27:00,66.8,60.5,29.99,East,90,0.9,0.9,80,0.00,,,0.00,WUHU216HW,2013-09-05 03:27:00,
2013-09-04 20:32:00,66.6,60.3,29.99,NNE,23,0.9,0.9,80,0.00,,,0.00,WUHU216HW,2013-09-05 03:32:00,
2013-09-04 20:37:00,66.2,60.3,29.99,NNE,23,2.2,2.2,81,0.00,,,0.00,WUHU216HW,2013-09-05 03:37:00,
2013-09-04 20:42:00,65.9,60.0,29.99,NNE,23,1.3,2.2,81,0.00,,,0.00,WUHU216HW,2013-09-05 03:42:00,
2013-09-04 20:47:00,65.9,60.0,29.99,North,0,0.4,2.2,81,0.00,,,0.00,WUHU216HW,2013-09-05 03:47:00,
2013-09-04 20:52:00,65.9,60.0,29.99,North,0,1.1,1.1,81,0.00,,,0.00,WUHU216HW,2013-09-05 03:52:00,
2013-09-04 20:57:00,65.9,60.0,29.98,North,0,1.1,1.1,81,0.00,,,0.00,WUHU216HW,2013-09-05 03:57:00,
2013-09-04 21:01:00,65.9,60.0,29.98,North,0,1.1,1.1,81,0.00,,,0.00,WUHU216HW,2013-09-05 04:01:00,
2013-09-04 21:06:00,65.5,59.9,29.98,North,0,1.1,1.6,82,0.00,,,0.00,WUHU216HW,2013-09-05 04:06:00,
2013-09-04 21:11:00,65.5,59.9,29.97,North,0,1.1,1.3,82,0.00,,,0.00,WUHU216HW,2013-09-05 04:11:00,
2013-09-04 21:16:00,65.3,59.7,29.98,North,0,0.0,2.0,82,0.00,,,0.00,WUHU216HW,2013-09-05 04:16:00,
2013-09-04 21:21:00,65.3,59.7,29.97,North,0,0.9,2.0,82,0.00,,,0.00,WUHU216HW,2013-09-05 04:21:00,
2013-09-04 21:26:00,65.2,59.5,29.96,North,0,2.2,2.2,82,0.00,,,0.00,WUHU216HW,2013-09-05 04:26:00,
2013-09-04 21:31:00,65.0,59.3,29.97,NE,45,0.0,2.5,82,0.00,,,0.00,WUHU216HW,2013-09-05 04:31:00,
2013-09-04 21:36:00,65.0,59.3,29.98,NE,45,0.0,2.5,82,0.00,,,0.00,WUHU216HW,2013-09-05 04:36:00,
2013-09-04 21:41:00,65.0,59.3,29.98,NE,45,0.4,0.4,82,0.00,,,0.00,WUHU216HW,2013-09-05 04:41:00,
2013-09-04 21:46:00,64.8,59.5,29.98,North,0,1.1,1.1,83,0.00,,,0.00,WUHU216HW,2013-09-05 04:46:00,
2013-09-04 21:51:00,64.8,59.5,30.00,North,0,0.0,1.1,83,0.00,,,0.00,WUHU216HW,2013-09-05 04:51:00,
2013-09-04 21:56:00,64.8,59.5,29.99,North,0,0.0,0.4,83,0.00,,,0.00,WUHU216HW,2013-09-05 04:56:00,
2013-09-04 22:01:00,64.8,59.9,29.98,North,0,1.1,1.1,84,0.00,,,0.00,WUHU216HW,2013-09-05 05:01:00,
2013-09-04 22:06:00,64.6,59.3,30.00,North,0,0.0,1.1,83,0.00,,,0.00,WUHU216HW,2013-09-05 05:06:00,
2013-09-04 22:11:00,64.6,59.3,30.00,North,0,0.0,1.1,83,0.00,,,0.00,WUHU216HW,2013-09-05 05:11:00,
2013-09-04 22:16:00,64.6,59.3,30.00,North,0,1.1,1.1,83,0.00,,,0.00,WUHU216HW,2013-09-05 05:16:00,
2013-09-04 22:21:00,64.6,59.3,30.00,North,0,0.0,1.1,83,0.00,,,0.00,WUHU216HW,2013-09-05 05:21:00,
2013-09-04 22:26:00,64.6,59.1,29.99,North,0,0.0,1.1,82,0.00,,,0.00,WUHU216HW,2013-09-05 05:26:00,
2013-09-04 22:31:00,64.6,59.3,29.99,North,0,1.3,1.3,83,0.00,,,0.00,WUHU216HW,2013-09-05 05:31:00,
2013-09-04 22:37:00,64.3,59.0,30.00,NNE,23,0.4,1.3,83,0.00,,,0.00,WUHU216HW,2013-09-05 05:37:00,
2013-09-04 22:42:00,64.1,58.8,29.99,NNE,23,1.3,1.3,83,0.00,,,0.00,WUHU216HW,2013-09-05 05:42:00,
2013-09-04 22:47:00,63.9,59.0,29.98,North,0,1.6,1.6,84,0.00,,,0.00,WUHU216HW,2013-09-05 05:47:00,
2013-09-04 22:52:00,63.7,58.8,29.99,North,0,0.4,1.6,84,0.00,,,0.00,WUHU216HW,2013-09-05 05:52:00,
2013-09-04 22:56:00,63.7,58.8,29.99,North,0,0.4,1.6,84,0.00,,,0.00,WUHU216HW,2013-09-05 05:56:00,
2013-09-04 23:02:00,63.7,58.8,29.99,North,0,0.4,0.7,84,0.00,,,0.00,WUHU216HW,2013-09-05 06:02:00,
2013-09-04 23:07:00,63.5,58.6,30.00,North,0,0.4,0.4,84,0.00,,,0.00,WUHU216HW,2013-09-05 06:07:00,
2013-09-04 23:12:00,63.4,58.4,30.00,North,0,0.0,0.4,84,0.00,,,0.00,WUHU216HW,2013-09-05 06:12:00,
2013-09-04 23:17:00,63.5,58.6,30.00,North,0,1.1,1.1,84,0.00,,,0.00,WUHU216HW,2013-09-05 06:17:00,
2013-09-04 23:22:00,63.4,58.8,29.99,North,0,1.8,1.8,85,0.00,,,0.00,WUHU216HW,2013-09-05 06:22:00,
2013-09-04 23:27:00,63.4,58.8,29.99,North,0,2.5,2.5,85,0.00,,,0.00,WUHU216HW,2013-09-05 06:27:00,
2013-09-04 23:32:00,63.2,58.6,29.99,North,0,2.7,2.7,85,0.00,,,0.00,WUHU216HW,2013-09-05 06:32:00,
2013-09-04 23:37:00,63.2,58.6,29.99,NNE,23,1.8,2.7,85,0.00,,,0.00,WUHU216HW,2013-09-05 06:37:00,
2013-09-04 23:42:00,63.2,58.6,29.99,North,0,2.0,3.4,85,0.00,,,0.00,WUHU216HW,2013-09-05 06:42:00,
2013-09-04 23:47:00,63.2,58.6,30.00,North,0,0.0,3.4,85,0.00,,,0.00,WUHU216HW,2013-09-05 06:47:00,
2013-09-04 23:52:00,63.2,58.6,30.00,North,0,0.0,2.0,85,0.00,,,0.00,WUHU216HW,2013-09-05 06:52:00,
2013-09-04 23:57:00,63.0,58.4,30.00,North,0,0.0,1.3,85,0.00,,,0.00,WUHU216HW,2013-09-05 06:57:00,